[[{"header":{"parameterUnit":"m.s-1","parameterCategory":1,"la1":30.2991,"la2":30.254,"lo1":-89.0895,"lo2":-89.0444,"dy":0.0017,"dx":0.0017,"nx":28,"ny":28,"refTime":"2025-03-06T09:00:00:Z","depth":0,"parameterNumber":2,"parameterNumberName":"U-component_of_WINDS"},"data":[0,0,0,0,0,0,0,0,0,0,0,0,0,0,0,0,0,0,0,0,0,0,0,0,0,0,0,0,0,0,0,0,0,0,0,0,0,0,0,0,0,0,0,0,0,0,0,0,0,0,0,0,0,0,0,0,0,0,-0.3692,-0.3692,0,-0.3719,-0.3719,-0.372,-0.3735,-0.3735,-0.3735,-0.3735,-0.3763,-0.3764,-0.3765,0,0,0,0,0,0,0,0,0,0,0,0,0,-0.3656,-0.3657,-0.3692,-0.3692,-0.3693,-0.3719,-0.3719,-0.372,-0.3735,-0.3735,-0.3735,-0.3735,-0.3763,-0.3764,-0.3765,0,0,0,0,0,0,0,0,0,0,0,0,0,-0.3676,-0.3657,-0.3692,-0.3704,-0.3705,-0.3719,-0.3719,-0.372,-0.3735,-0.3735,-0.3735,-0.3735,-0.3763,-0.3764,-0.3765,-0.377,0,0,-0.3768,-0.3769,0,0,0,0,0,0,0,0,-0.3675,-0.3678,-0.3702,-0.3703,-0.3704,-0.3724,-0.3717,-0.3737,-0.3735,-0.3724,-0.3735,-0.3735,-0.375,-0.3752,-0.3757,-0.3771,-0.3772,-0.3768,-0.3769,-0.3769,-0.377,0,0,0,0,0,0,0,-0.3674,-0.3676,-0.3703,-0.3702,-0.3704,-0.3708,-0.3711,-0.3721,-0.3736,-0.3725,-0.3726,-0.3729,-0.3751,-0.3756,-0.3758,-0.3773,-0.3768,-0.3769,-0.377,-0.377,-0.3794,-0.3794,0,0,0,0,0,0,-0.367,-0.3675,-0.3702,-0.3704,-0.369,-0.3709,-0.3712,-0.3717,-0.3736,-0.3739,-0.3728,-0.3729,-0.3754,-0.3757,-0.3759,-0.3767,-0.3769,-0.377,-0.3771,-0.3794,-0.3794,-0.3794,0,0,0,0,0,0,-0.3669,-0.3672,-0.3701,-0.369,-0.3694,-0.3709,-0.3715,-0.3718,-0.3723,-0.3739,-0.3742,-0.3731,-0.3754,-0.3758,-0.3767,-0.3768,-0.3771,-0.3772,-0.3794,-0.3794,-0.3794,-0.3782,0,0,0,0,0,0,-0.3668,-0.3672,-0.3674,-0.369,-0.3694,-0.3708,-0.3715,-0.3718,-0.3725,-0.3726,-0.3742,-0.3745,-0.3755,-0.3766,-0.3768,-0.377,-0.3773,-0.3794,-0.3794,-0.3794,-0.3783,-0.3782,-0.3781,0,0,0,0,0,-0.3667,-0.3669,-0.3674,-0.3677,-0.3696,-0.3708,-0.3711,-0.3722,-0.3725,-0.3727,-0.3737,-0.3744,-0.3768,-0.3767,-0.377,-0.3771,-0.3794,-0.3794,-0.3794,-0.3783,-0.3782,-0.3781,0,0,0,0,0,0,-0.3653,-0.3671,-0.3676,-0.3684,-0.3694,-0.3711,-0.3713,-0.372,-0.373,-0.3731,-0.3745,-0.3748,-0.3757,-0.3765,-0.3764,-0.3778,-0.3782,-0.3782,-0.3772,-0.3771,-0.3771,-0.3769,-0.3774,0,0,0,0,0,-0.365,-0.3658,-0.3674,-0.3679,-0.3684,-0.3698,-0.3703,-0.3711,-0.3723,-0.3727,-0.3738,-0.375,-0.376,-0.3766,-0.3776,-0.3784,-0.3788,-0.3787,-0.3786,-0.3785,-0.3786,-0.3792,-0.3792,-0.3794,-0.3794,-0.3794,0,0,-0.3646,-0.3657,-0.3661,-0.3676,-0.3685,-0.3694,-0.3701,-0.3709,-0.3716,-0.3729,-0.3739,-0.3747,-0.3761,-0.377,-0.3775,-0.3777,-0.3786,-0.3785,-0.3785,-0.3785,-0.3792,-0.3792,-0.3791,-0.3794,-0.3794,-0.3794,0,0,-0.3642,-0.365,-0.3656,-0.3665,-0.3679,-0.3688,-0.3689,-0.3705,-0.3711,-0.3722,-0.3732,-0.374,-0.3756,-0.3766,-0.3773,-0.3774,-0.3781,-0.3777,-0.3773,-0.3779,-0.3779,-0.3779,-0.378,-0.378,-0.3777,-0.3777,-0.3777,0,-0.3634,-0.3647,-0.3658,-0.3666,-0.3673,-0.3685,-0.3691,-0.3699,-0.3716,-0.3721,-0.3723,-0.3745,-0.3755,-0.3767,-0.3767,-0.3773,-0.3775,-0.3775,-0.3778,-0.3778,-0.3778,-0.3779,-0.378,-0.3777,-0.3777,-0.3777,-0.3777,0,-0.3637,-0.3646,-0.3649,-0.3664,-0.3672,-0.3679,-0.3692,-0.3698,-0.3706,-0.3715,-0.3726,-0.3739,-0.3752,-0.3755,-0.3763,-0.3769,-0.377,-0.3775,-0.3779,-0.3777,-0.3779,-0.3779,-0.3776,-0.3776,-0.3776,-0.3776,0,0,-0.3625,-0.3647,-0.3648,-0.3656,-0.3672,-0.3679,-0.3687,-0.37,-0.3706,-0.3717,-0.3724,-0.3739,-0.3744,-0.3752,-0.376,-0.3765,-0.3766,-0.377,-0.377,-0.3769,-0.3776,-0.3772,-0.3773,-0.3771,-0.3771,-0.3772,-0.3775,0,-0.3624,-0.3638,-0.3649,-0.366,-0.3668,-0.368,-0.3687,-0.3699,-0.3708,-0.3717,-0.3728,-0.3738,-0.3743,-0.3748,-0.3754,-0.3765,-0.3768,-0.3765,-0.378,-0.378,-0.3776,-0.3773,-0.377,-0.3772,-0.3775,-0.3775,-0.3775,0,-0.3624,-0.3635,-0.3646,-0.3662,-0.3666,-0.3673,-0.3686,-0.3694,-0.3708,-0.3714,-0.3724,-0.3733,-0.3743,-0.3746,-0.3761,-0.3759,-0.3765,-0.3772,-0.3772,-0.3775,-0.3778,-0.3776,-0.3773,-0.3773,-0.3776,-0.3776,-0.3776,0,-0.3615,-0.3632,-0.3641,-0.3647,-0.3666,-0.3671,-0.3679,-0.3692,-0.37,-0.3712,-0.3717,-0.373,-0.3737,-0.3747,-0.376,-0.3761,-0.3774,-0.3778,-0.378,-0.378,-0.3783,-0.3782,-0.3781,-0.3786,-0.3786,-0.3786,-0.3786,0,-0.3612,-0.3619,-0.3637,-0.3643,-0.3651,-0.3665,-0.3673,-0.3682,-0.3694,-0.3703,-0.3714,-0.3722,-0.3738,-0.3748,-0.3758,-0.377,-0.3773,-0.3779,-0.3781,-0.3778,-0.3777,-0.3783,-0.3783,-0.3786,-0.3786,-0.3786,-0.3786,0,-0.3603,-0.3616,-0.3627,-0.3644,-0.3649,-0.3654,-0.367,-0.3676,-0.3686,-0.3697,-0.37,-0.3716,-0.3729,-0.3743,-0.376,-0.3767,-0.3778,-0.3781,-0.3773,-0.3775,-0.3777,-0.3777,-0.378,-0.3781,-0.3784,-0.3784,-0.3784,0,-0.3601,-0.3607,-0.3625,-0.3631,-0.3639,-0.3649,-0.3657,-0.367,-0.3678,-0.3695,-0.37,-0.3713,-0.3724,-0.3744,-0.3758,-0.3772,-0.3776,-0.3776,-0.3778,-0.3775,-0.3777,-0.3777,-0.3778,-0.3776,-0.3775,-0.3775,-0.3775,0,-0.3597,-0.3603,-0.3613,-0.3626,-0.3635,-0.3646,-0.3657,-0.3662,-0.3678,-0.3686,-0.3699,-0.3708,-0.3726,-0.374,-0.3755,-0.3765,-0.3773,-0.3775,-0.3776,-0.3773,-0.3768,-0.3771,-0.3772,-0.3774,-0.3775,-0.3775,-0.3775,-0.3775,-0.3592,-0.3597,-0.3611,-0.3623,-0.3633,-0.3643,-0.3651,-0.3662,-0.3673,-0.3688,-0.3696,-0.3709,-0.3724,-0.3745,-0.3755,-0.3766,-0.3768,-0.377,-0.3771,-0.3771,-0.3771,-0.3766,-0.3769,-0.3769,-0.3769,-0.3769,-0.3769,0,-0.3588,-0.3598,-0.3608,-0.3624,-0.3633,-0.364,-0.3653,-0.3661,-0.3672,-0.3685,-0.3696,-0.3712,-0.3725,-0.374,-0.3755,-0.3761,-0.3766,-0.3765,-0.3765,-0.3767,-0.3767,-0.3765,-0.3761,-0.3761,-0.3761,-0.3761,-0.3761,-0.3761,-0.3588,-0.3598,-0.3606,-0.3622,-0.3632,-0.3645,-0.3652,-0.3662,-0.3672,-0.3689,-0.37,-0.371,-0.3724,-0.374,-0.3753,-0.3757,-0.3763,-0.3761,-0.3766,-0.3766,-0.3767,-0.3767,-0.3765,-0.3762,-0.3762,-0.3765,-0.3765,-0.3765]},{"header":{"parameterUnit":"m.s-1","parameterCategory":1,"la1":30.2991,"la2":30.254,"lo1":-89.0895,"lo2":-89.0444,"dy":0.0017,"dx":0.0017,"nx":28,"ny":28,"refTime":"2025-03-06T09:00:00:Z","depth":0,"parameterNumber":3,"parameterNumberName":"V-component_of_WINDS"},"data":[0,0,0,0,0,0,0,0,0,0,0,0,0,0,0,0,0,0,0,0,0,0,0,0,0,0,0,0,0,0,0,0,0,0,0,0,0,0,0,0,0,0,0,0,0,0,0,0,0,0,0,0,0,0,0,0,0,0,2.3932,2.3932,0,2.3897,2.3897,2.3896,2.3831,2.383,2.3829,2.3828,2.3791,2.3791,2.3791,0,0,0,0,0,0,0,0,0,0,0,0,0,2.3942,2.3942,2.3932,2.3932,2.3931,2.3897,2.3896,2.3896,2.3831,2.383,2.3828,2.3827,2.3791,2.3791,2.3791,0,0,0,0,0,0,0,0,0,0,0,0,0,2.3925,2.3942,2.3932,2.3895,2.3891,2.3897,2.3896,2.3896,2.3832,2.383,2.3828,2.3826,2.3791,2.3791,2.3791,2.383,0,0,2.3792,2.3792,0,0,0,0,0,0,0,0,2.3926,2.3925,2.3901,2.3898,2.3894,2.3867,2.3886,2.3874,2.3832,2.3854,2.3828,2.3825,2.3817,2.3815,2.3813,2.3828,2.3827,2.3792,2.3792,2.3792,2.3792,0,0,0,0,0,0,0,2.3927,2.3926,2.3918,2.3901,2.3896,2.3879,2.3875,2.3884,2.3847,2.3852,2.3848,2.3844,2.3815,2.3813,2.3811,2.3826,2.3792,2.3792,2.3792,2.3792,2.3868,2.387,0,0,0,0,0,0,2.3934,2.3928,2.3919,2.3917,2.3906,2.3881,2.3876,2.3877,2.3847,2.384,2.3846,2.3841,2.3813,2.3811,2.381,2.3851,2.3792,2.3792,2.3793,2.3866,2.3869,2.3871,0,0,0,0,0,0,2.3935,2.3934,2.3921,2.3921,2.3918,2.3883,2.3885,2.3877,2.3875,2.3842,2.3835,2.385,2.3812,2.3809,2.3825,2.3849,2.3793,2.3793,2.3864,2.3867,2.387,2.3935,0,0,0,0,0,0,2.3935,2.3935,2.395,2.3922,2.3918,2.3937,2.3886,2.3878,2.3876,2.3869,2.3844,2.3838,2.381,2.3825,2.3825,2.3848,2.3793,2.3862,2.3866,2.3869,2.3931,2.394,2.3948,0,0,0,0,0,2.3936,2.397,2.3951,2.395,2.3937,2.3939,2.3937,2.3904,2.3878,2.3892,2.387,2.3839,2.3847,2.3827,2.3827,2.385,2.386,2.3865,2.3869,2.3927,2.3938,2.3948,0,0,0,0,0,0,2.4003,2.3966,2.3944,2.3971,2.3958,2.3928,2.3945,2.3917,2.3912,2.3906,2.3866,2.386,2.388,2.3867,2.3846,2.3885,2.3848,2.3853,2.3893,2.3903,2.3912,2.3914,2.3793,0,0,0,0,0,2.402,2.4026,2.3993,2.402,2.4015,2.3981,2.3981,2.3957,2.3942,2.3936,2.3916,2.3902,2.3901,2.3902,2.3899,2.3929,2.3921,2.3945,2.3953,2.3961,2.3964,2.3976,2.3986,2.3884,2.3884,2.3884,0,0,2.4057,2.4038,2.4044,2.4033,2.402,2.4026,2.3977,2.3986,2.3989,2.3938,2.395,2.3935,2.3917,2.3939,2.3947,2.3928,2.399,2.3966,2.3972,2.3972,2.3981,2.3991,2.4,2.3887,2.3887,2.3886,0,0,2.4126,2.4114,2.4133,2.4121,2.4102,2.4079,2.4084,2.4057,2.4045,2.4057,2.4018,2.4021,2.4021,2.4009,2.4003,2.4065,2.4035,2.4066,2.411,2.4122,2.413,2.4136,2.4156,2.4164,2.407,2.407,2.407,0,2.4174,2.4182,2.4146,2.4156,2.4152,2.4105,2.4123,2.4114,2.4095,2.4093,2.4071,2.4068,2.4054,2.4071,2.4086,2.4083,2.4085,2.4068,2.4131,2.4138,2.4144,2.4162,2.417,2.4074,2.4073,2.4073,2.4072,0,2.424,2.4246,2.4263,2.4246,2.4243,2.4258,2.4223,2.4225,2.42,2.4179,2.4191,2.4171,2.4162,2.4165,2.4141,2.4178,2.4166,2.4139,2.4101,2.4158,2.4174,2.4181,2.4079,2.4077,2.4076,2.4075,0,0,2.4351,2.4313,2.432,2.431,2.4285,2.4288,2.43,2.4291,2.4292,2.4281,2.4288,2.4288,2.4261,2.4255,2.4229,2.424,2.4288,2.4211,2.421,2.4224,2.4323,2.4343,2.4352,2.4268,2.4269,2.427,2.4324,0,2.4414,2.4431,2.4398,2.4423,2.4426,2.4381,2.4391,2.4376,2.4356,2.4355,2.4333,2.4333,2.43,2.4295,2.4304,2.428,2.4307,2.4276,2.4272,2.4273,2.4277,2.4361,2.4382,2.4434,2.4331,2.4332,2.4333,0,2.4489,2.448,2.4505,2.4477,2.4477,2.4486,2.4474,2.4474,2.4456,2.444,2.4432,2.4402,2.4409,2.4373,2.4382,2.4361,2.4358,2.4346,2.4347,2.4344,2.4305,2.4358,2.445,2.4457,2.4343,2.4342,2.4341,0,2.4565,2.4559,2.4573,2.4566,2.4534,2.4541,2.4528,2.4507,2.4503,2.4493,2.4489,2.448,2.4475,2.4467,2.4435,2.4412,2.4446,2.4408,2.4432,2.4433,2.444,2.444,2.453,2.4441,2.4441,2.4441,2.4441,0,2.4637,2.4653,2.4606,2.4614,2.463,2.4592,2.4609,2.4591,2.4573,2.4576,2.4537,2.454,2.4498,2.4496,2.447,2.4479,2.4478,2.4464,2.4457,2.4467,2.4468,2.4463,2.4458,2.4443,2.4442,2.4442,2.4442,0,2.4724,2.4693,2.4704,2.4672,2.4664,2.4678,2.4649,2.4655,2.4632,2.4636,2.4635,2.4599,2.4594,2.4561,2.4549,2.4532,2.455,2.4536,2.4556,2.4551,2.4575,2.4573,2.4664,2.4673,2.458,2.4581,2.4582,0,2.4771,2.4782,2.4751,2.475,2.4739,2.4738,2.4733,2.4696,2.4692,2.4671,2.4678,2.467,2.4662,2.4657,2.4629,2.4619,2.4603,2.4636,2.4602,2.461,2.4601,2.46,2.46,2.4643,2.4645,2.4646,2.4646,0,2.4858,2.4841,2.4836,2.4826,2.4821,2.4811,2.4798,2.4799,2.4758,2.4755,2.475,2.4744,2.4731,2.4723,2.4708,2.4692,2.4662,2.4657,2.4662,2.4671,2.4681,2.4674,2.4574,2.4655,2.4654,2.4654,2.4653,2.4653,2.4925,2.4932,2.491,2.4905,2.4892,2.488,2.4883,2.486,2.4855,2.4841,2.4819,2.4817,2.4795,2.4772,2.4759,2.4755,2.4737,2.4745,2.4746,2.4748,2.4752,2.4683,2.4752,2.4752,2.4752,2.4752,2.4751,0,2.5007,2.4991,2.4987,2.497,2.4965,2.4937,2.4921,2.4919,2.4917,2.49,2.4892,2.4885,2.4876,2.4847,2.4835,2.4837,2.4823,2.4835,2.4834,2.483,2.477,2.4766,2.4847,2.4847,2.4847,2.4847,2.4847,2.4847,2.505,2.5059,2.504,2.5042,2.5025,2.5022,2.5015,2.5003,2.4989,2.4982,2.4975,2.4956,2.4933,2.4919,2.4909,2.4901,2.4897,2.4914,2.4901,2.4844,2.4835,2.4826,2.4822,2.4914,2.4914,2.4961,2.4961,2.4962]}]]